Regional Weather Roundup
Issued by NWS Huntsville, AL

Home | Current Version | Previous Version | Text Only | Print | Product List | Glossary On
Versions: 1 2 3 4 5 6 7 8 9 10 11 12 13 14 15 16 17 18 19 20 21 22 23 24 25 26 27 28 29 30 31 32 33 34 35 36 37 38 39 40 41 42 43 44 45 46 47 48 49 50
000
ASUS44 KHUN 021010
RWRHUN

WEATHER ROUNDUP FOR THE TENNESSEE VALLEY
NATIONAL WEATHER SERVICE HUNTSVILLE AL
500 AM CDT MON MAY 02 2016

ALZ001>004-021100-
NORTHWEST ALABAMA

CITY           SKY/WX    TMP DP  RH WIND       PRES   REMARKS
SHOALS AIRPORT NOT AVBL
$$

ALZ005>007-016-021100-
NORTH CENTRAL ALABAMA

CITY           SKY/WX    TMP DP  RH WIND       PRES   REMARKS
DECATUR AP     PTCLDY    59  59 100 CALM      29.99S
HUNTSVILLE AP  PTCLDY    61  58  90 SE5       29.98F
HUN NWS/UAH      N/A     62  59  91 E1          N/A
MERIDIANVILLE  PTCLDY    57  54  88 CALM      30.00S
REDSTONE ARSN  PTCLDY    60  60  98 S2        29.98S
VINEMONT AP    FAIR      59  58  98 CALM      30.01S
$$

ALZ008>010-021100-
NORTHEAST ALABAMA

CITY           SKY/WX    TMP DP  RH WIND       PRES   REMARKS
ALBERTVILLE    CLOUDY    61  61 100 E5        30.00S FOG
FORT PAYNE     CLOUDY    57  54  88 CALM      30.01S FOG
SCOTTSBORO AP  CLOUDY    59  59 100 CALM      30.01S FOG
SCOTTSBORO HCN   N/A     59 N/A N/A MISG        N/A
VALLEY HEAD      N/A     55 N/A N/A MISG        N/A
$$

TNZ076-096-097-021100-
SOUTHEASTERN MIDDLE TENNESSEE

CITY           SKY/WX    TMP DP  RH WIND       PRES   REMARKS
TULLAHOMA      PTCLDY    61  61 100 CALM      30.01S
WINCHESTER     MOCLDY    59  57  94 CALM      30.01S
$$

...SURROUNDING SITES...

CITY           SKY/WX    TMP DP  RH WIND       PRES   REMARKS
ATLANTA        CLOUDY    68  64  87 NW5       30.01S
ANNISTON       PTCLDY    62  60  93 E3        30.01R
BIRMINGHAM     PTCLDY    64  63  96 CALM      30.01S
CHATTANOOGA    CLOUDY    62  59  90 CALM      30.01S
DALTON         CLOUDY    61  61 100 CALM      30.01F
GADSDEN        FOG       63  63 100 CALM      30.01S VSB 1/4
GOLDEN TRNGL   CLOUDY    66  64  94 SE5       29.95F
HALEYVILLE     FOG       61  61 100 CALM      30.01R VSB 3/4
JACKSON TN     CLOUDY    62  55  77 N7        29.98R
MEMPHIS        CLOUDY    66  54  65 N12       29.97S
NASHVILLE      CLOUDY    66  63  88 NW5       29.98R
OXFORD MS      FAIR      64  64 100 CALM      29.96S FOG
ROME           CLOUDY    60  59  96 CALM      30.01S FOG
SAVANNAH       CLOUDY    64  64 100 CALM      29.96S
TUPELO         MOCLDY    67  64  90 E3        29.95F
TUSCALOOSA     PTCLDY    61  61 100 CALM      29.98R FOG
$$

...GULF COAST WEATHER...

CITY           SKY/WX    TMP DP  RH WIND       PRES   REMARKS
GULFPORT       CLEAR     66  64  93 CALM      29.92F
PASCAGOULA     FOG       68  67  96 CALM      29.94R VSB 1
MOBILE         CLEAR     67  67 100 CALM      29.95F FOG
GULF SHORES    PTSUNNY   69  69 100 E14       29.95S
DESTIN         MOCLDY    75  74  96 CALM      29.97F
PANAMA CITY    CLOUDY    70  70 100 E3        29.98R
APPALACHICOLA  MOCLDY    73  73 100 SE9       29.97S
$$




USA.gov is the U.S. government's official web portal to all federal, state and local government web resources and services.